Home > Weather > Marigot > Past weeks

Weather for the Past 2 Weeks in Marigot, Saint Martin

Now
81 °F

Scattered clouds.


Feels Like: 84 °F
Forecast: N/A
Wind: 16 mph from Southeast

Location: Juliana Airport - Saint Maarten

Current Time: Feb 14, 2016 at 5:06:25 PM

Latest Report: Feb 14, 2016 at 4:00 PM


Visibility: N/A

Pressure: 29.92 "Hg

Humidity: 70%

Dew point: 70 °F

Location of MarigotLocation

Historic Weather in Marigot — Graph

°F

Marigot Temperature Yesterday

Maximum temperature yesterday: 84 °F (at 1:00 PM)
Minimum temperature yesterday: 77 °F (at 5:00 AM)
Average temperature yesterday: 80 °F

High & Low Weather Summary for the Past Weeks

 TemperatureHumidityPressure
High84 °F (Feb 5, 12:00 PM)94% (Feb 14, 7:00 AM)30.15 "Hg (Feb 14, 7:00 AM)
Low73 °F (Feb 5, 1:00 AM)54% (Feb 4, 3:00 PM)29.86 "Hg (Feb 4, 3:00 PM)
Average79 °F73%30.03 "Hg
* Reported Jan 30 3:00 PM — Feb 14 3:00 PM, Marigot, Weather by CustomWeather, © 2016

Note: Actual official high and low records may vary slightly from our data, if they occured in-between our weather recording intervals... More about our weather records

Advertising

Marigot Weather History for the Previous 24 Hours

 ConditionsComfort  
Time TempWeatherWind HumidityBarometerVisibility
3:00 PM
Sun, Feb 14
81 °FPartly sunny.12 mph70%29.95 "HgN/A
2:00 PM77 °FPartly sunny.10 mph83%29.95 "HgN/A
1:00 PM73 °FRain showers. Broken clouds.10 mph89%30.01 "Hg2 mi
12:00 PM73 °FSprinkles. Broken clouds.3 mph89%N/AN/A
11:00 AM75 °FSprinkles. Partly sunny.10 mph78%30.04 "HgN/A
10:00 AM81 °FScattered clouds.12 mph66%30.04 "HgN/A
9:00 AM81 °FPassing clouds.9 mph70%30.01 "HgN/A
8:00 AM77 °FScattered showers. Scattered clouds.2 mph83%30.01 "HgN/A
7:00 AM73 °FTornado. Partly sunny.2 mph94%30.01 "HgN/A
6:00 AM75 °FSprinkles. Partly cloudy.9 mph83%29.98 "HgN/A
5:00 AM75 °FPassing clouds.6 mph78%29.95 "HgN/A
4:00 AM77 °FPassing clouds.9 mph74%29.95 "HgN/A
3:00 AM77 °FPassing clouds.12 mph79%29.98 "HgN/A
2:00 AM77 °FPassing clouds.8 mph74%29.98 "HgN/A
1:00 AM79 °FPassing clouds.8 mph70%30.01 "HgN/A
12:00 AM79 °FPassing clouds.9 mph70%30.01 "HgN/A
11:00 PM
Sat, Feb 13
79 °FPassing clouds.8 mph70%30.04 "HgN/A
10:00 PM79 °FPassing clouds.9 mph74%30.04 "HgN/A
9:00 PM79 °FPassing clouds.8 mph74%30.04 "HgN/A
8:00 PM79 °FPassing clouds.8 mph70%30.04 "HgN/A
7:00 PM79 °FPassing clouds.7 mph70%30.01 "HgN/A
6:00 PM79 °FScattered clouds.9 mph70%30.01 "HgN/A
5:00 PM81 °FPassing clouds.10 mph66%29.98 "HgN/A
Weather by CustomWeather, © 2016

See weather overviewHow to use our weather pages